Airport Name : Campbeltown

Other Name : Campbeltown

ICAO : EGEC

IATA : CAL

FAA :

Latitude : 55.437222

Longitude : -5.686389

Country : United Kingdom

Local Date and Time : 11/20/2018 9:17:00 PM

 

TAF (Terminal Aerodrome Forecast)

 

METAR (METeorological Aerodrome Report)

EGEC 201720Z 07019G29KT 9999 FEW019 SCT048 07/02 Q1017